Location: Deuil
(48.9767°N, 2.3272°E)
Time: 18:33:23
(UTC+00:00)

Resurs 01 Rocket - Pass Details

Date: 24 October 2021
Orbit: 635 x 643 km, 97.9° (Epoch: 07 December)

Event Time Altitude Azimuth Distance (km) Brightness Sun altitude
Exits shadow 19:57:02 10° 357° (N) 2,019 4.4 -32.0°
Drops below altitude 10° 19:57:09 10° 356° (N) 2,063 4.5 -32.1°
Sets 19:59:22 0° 351° (N) 2,956 5.4 -32.4°
